Location: Sperry Observatory
(40.6664°N, 74.3236°W)
Time: 17:39:18
(UTC-04:00)

UOSAT-12 - Visible Passes

Search period start: 23 August 2017 00:00
Search period end: 02 September 2017 00:00
Orbit: 599 x 655 km, 64.6° (Epoch: 23 August)

Date Brightness Start Highest point End Pass type
(mag) Time Alt. Az. Time Alt. Az. Time Alt. Az.
23 Aug 10.0 00:43:15 14° NNW 00:43:15 14° NNW 00:44:59 10° N visible
23 Aug 10.3 05:48:37 10° NNE 05:50:21 12° NE 05:52:05 10° ENE visible
23 Aug 9.5 23:24:33 18° NNE 23:24:33 18° NNE 23:25:53 10° NNE visible
24 Aug 9.5 23:42:53 20° NNW 23:42:53 20° NNW 23:45:14 10° N visible
25 Aug 8.8 22:23:35 25° NNE 22:23:35 25° NNE 22:25:34 10° NNE visible
26 Aug 10.0 00:00:45 13° NW 00:01:47 13° NW 00:04:03 10° N visible
26 Aug 10.2 05:07:34 10° N 05:09:51 13° NE 05:12:06 10° ENE visible
26 Aug 8.8 21:03:08 17° ENE 21:03:08 17° ENE 21:04:38 10° ENE visible
26 Aug 8.4 22:40:07 36° WNW 22:40:50 38° NW 22:45:11 10° NNE visible
27 Aug 9.8 05:26:22 10° N 05:30:07 23° NE 05:33:52 10° E visible
27 Aug 7.1 21:16:09 10° SSW 21:20:31 53° ESE 21:25:02 10° NE visible
27 Aug 9.6 22:57:29 10° W 23:00:57 21° NW 23:04:27 10° N visible
28 Aug 8.6 05:45:42 10° NNW 05:50:12 43° NE 05:54:40 10° SE visible
28 Aug 8.8 19:58:51 10° SE 20:00:49 13° ESE 20:02:48 10° E visible
28 Aug 7.3 21:35:46 10° SW 21:40:17 69° NW 21:44:55 10° NNE visible
28 Aug 10.3 23:19:31 10° WNW 23:21:16 12° NW 23:23:02 10° NNW visible
29 Aug 10.2 04:26:38 10° N 04:29:19 15° NE 04:32:00 10° ENE visible
29 Aug 7.9 20:16:24 10° S 20:20:15 28° ESE 20:24:11 10° NE visible
29 Aug 8.8 21:56:07 10° WSW 22:00:14 33° NW 22:04:27 10° NNE visible
30 Aug 9.5 04:45:36 10° N 04:49:33 26° NE 04:53:30 10° ESE visible
30 Aug 7.0 20:35:24 10° SSW 20:39:52 64° ESE 20:44:26 10° NE visible
30 Aug 9.9 22:17:12 10° W 22:20:23 18° NW 22:23:39 10° N visible
31 Aug 8.2 05:05:01 10° NNW 05:09:36 50° NE 05:14:08 10° SE visible
31 Aug 7.7 20:55:11 10° SW 20:59:40 59° NW 21:04:15 10° NNE visible
31 Aug 10.5 22:39:46 10° NW 22:40:45 11° NW 22:41:45 10° NNW visible
01 Sep 10.1 03:45:45 10° N 03:48:47 17° NE 03:51:49 10° E visible
01 Sep 7.1 05:24:44 10° NW 05:29:26 77° WSW 05:34:06 10° SSE visible
01 Sep 9.2 21:15:40 10° WSW 21:19:39 29° NW 21:23:43 10° NNE visible
